TimeCST,TemperatureF,Dew PointF,Humidity,Sea Level PressureIn,VisibilityMPH,Wind Direction,Wind SpeedMPH,Gust SpeedMPH,PrecipitationIn,Events,Conditions,WindDirDegrees,DateUTC
12:53 AM,17.6,14.0,86,30.24,10.0,NW,10.4,-,N/A,,Clear,310,2013-01-03 06:53:00
1:53 AM,16.0,12.9,88,30.34,10.0,NW,9.2,-,N/A,,Clear,310,2013-01-03 07:53:00
2:35 AM,17.6,15.8,93,30.28,10.0,WNW,10.4,-,N/A,,Mostly Cloudy,290,2013-01-03 08:35:00
2:53 AM,19.9,16.0,85,30.36,10.0,WNW,9.2,-,N/A,,Overcast,290,2013-01-03 08:53:00
3:53 AM,21.0,17.1,85,30.38,10.0,West,8.1,-,N/A,,Overcast,270,2013-01-03 09:53:00
4:29 AM,21.2,17.6,86,30.30,10.0,West,8.1,-,N/A,,Overcast,270,2013-01-03 10:29:00
4:53 AM,21.9,19.0,89,30.37,10.0,West,8.1,-,N/A,,Overcast,270,2013-01-03 10:53:00
5:53 AM,23.0,21.0,92,30.38,10.0,West,9.2,-,0.00,,Overcast,280,2013-01-03 11:53:00
6:53 AM,25.0,21.9,88,30.39,8.0,NW,11.5,-,0.00,Snow,Light Snow,310,2013-01-03 12:53:00
7:53 AM,25.0,21.9,88,30.40,10.0,NW,15.0,-,0.00,,Overcast,310,2013-01-03 13:53:00
8:00 AM,24.8,21.2,86,30.33,10.0,NW,12.7,-,N/A,,Overcast,320,2013-01-03 14:00:00
8:53 AM,26.1,19.9,78,30.43,10.0,NNW,10.4,-,N/A,,Overcast,340,2013-01-03 14:53:00
9:15 AM,26.6,19.4,74,30.36,10.0,NNW,8.1,-,N/A,,Overcast,330,2013-01-03 15:15:00
9:53 AM,24.1,21.0,88,30.46,10.0,NW,6.9,-,N/A,,Scattered Clouds,320,2013-01-03 15:53:00
10:53 AM,25.0,19.0,78,30.47,10.0,NW,6.9,-,N/A,,Clear,310,2013-01-03 16:53:00
11:53 AM,26.1,18.0,71,30.45,10.0,NNW,8.1,-,N/A,,Clear,330,2013-01-03 17:53:00
12:53 PM,26.1,19.0,75,30.43,10.0,NW,6.9,-,N/A,,Clear,310,2013-01-03 18:53:00
1:53 PM,26.1,18.0,71,30.41,10.0,Calm,Calm,-,N/A,,Clear,0,2013-01-03 19:53:00
2:53 PM,26.1,17.1,69,30.41,10.0,WSW,5.8,-,N/A,,Clear,240,2013-01-03 20:53:00
3:53 PM,25.0,17.1,72,30.41,10.0,WSW,5.8,-,N/A,,Clear,240,2013-01-03 21:53:00
4:53 PM,24.1,16.0,71,30.40,10.0,SSW,5.8,-,N/A,,Clear,210,2013-01-03 22:53:00
5:53 PM,21.9,15.1,75,30.39,10.0,SSW,4.6,-,N/A,,Clear,210,2013-01-03 23:53:00
6:53 PM,16.0,12.9,88,30.40,10.0,SSW,4.6,-,N/A,,Clear,210,2013-01-04 00:53:00
7:53 PM,18.0,14.0,84,30.40,10.0,SSW,5.8,-,N/A,,Clear,200,2013-01-04 01:53:00
8:53 PM,16.0,12.9,88,30.39,10.0,SSW,5.8,-,N/A,,Clear,200,2013-01-04 02:53:00
9:53 PM,12.9,10.0,88,30.38,10.0,Calm,Calm,-,N/A,,Clear,0,2013-01-04 03:53:00
10:53 PM,12.0,10.0,92,30.38,10.0,SW,3.5,-,N/A,,Clear,230,2013-01-04 04:53:00
11:53 PM,15.1,12.0,88,30.35,10.0,SSW,6.9,-,N/A,,Clear,210,2013-01-04 05:53:00